Dewpoint
10 11 12 14 12 15 17 17 16 8 4 2 5 9 -2 1 -2 -5 -4 -4 -7 -3 -0 1 1 -1 2 1 3 17 19 21 18 22 24 18 25 31 45 45 53 57 57 58 61 63 63 62 63 64 63 64 65 65 66 65 64 65 66 67 66 67 66 66 66 65 64 63 64 65 64 64 66 61 65 64 65 66 63 63 62 64 65 67 65 66
12 13 14 15 15 15 16 19 22 17 14 4 7 8 5 3 1 -2 -5 -5 -4 16 0 5 2 -0 3 4 1 15 21 21 22 23 26 22 20 32 39 46 48 52 55 58 61 62 63 63 65 65 65 64 63 64 65 64 64 64 65 65 66 67 67 67 67 67 67 64 64 64 61 60 60 59 61 61 63 63 64 65 65 66 66 65 66 66
14 14 16 15 17 19 20 22 19 17 17 15 13 13 10 3 0 1 -3 -3 -1 6 7 1 -0 -1 3 4 1 5 20 24 26 25 25 27 25 29 37 45 48 54 58 58 61 62 63 63 64 65 64 64 63 64 64 65 64 63 63 66 66 66 66 66 68 68 68 68 66 67 64 63 58 59 63 58 60 62 61 66 64 66 66 65 64 65
17 13 16 14 17 20 18 19 19 20 19 16 16 15 13 7 2 0 9 -2 3 12 11 9 3 7 8 7 8 7 3 22 22 21 22 26 27 29 36 41 50 58 55 57 60 60 61 63 63 64 63 63 64 64 64 63 63 62 63 66 66 66 66 67 66 65 66 68 70 68 67 65 63 60 61 61 64 62 61 62 63 64 66 64 63 63
13 14 15 15 15 17 21 21 23 20 16 21 22 15 12 7 5 0 12 14 20 16 24 12 15 12 12 5 2 10 8 14 21 22 23 25 22 32 42 48 53 52 54 56 61 60 61 61 62 62 63 63 63 64 64 62 62 64 64 66 66 66 66 65 64 65 64 67 66 65 62 62 61 62 62 62 60 63 62 61 63 64 65 63 61 62
15 19 20 11 10 12 17 20 23 24 17 17 21 19 15 10 6 3 17 12 11 16 18 12 11 12 12 10 4 8 12 7 20 27 26 25 29 32 35 51 57 58 61 55 60 60 60 62 62 61 62 63 63 64 64 62 63 62 64 65 66 65 65 64 64 64 63 64 68 64 62 61 60 60 62 62 62 60 60 58 62 60 64 61 64 61
13 18 17 15 16 17 18 19 21 21 16 14 11 12 12 10 11 8 7 14 13 13 21 22 15 15 12 12 13 14 10 13 25 29 27 26 28 31 34 53 53 53 55 58 60 61 61 61 62 61 62 63 63 65 64 63 62 62 63 64 65 64 64 64 63 63 63 62 65 64 61 62 61 60 63 62 63 63 58 60 63 61 64 61 64 61
13 12 15 14 20 18 18 15 17 15 12 9 14 9 7 5 7 12 11 10 19 18 25 20 14 12 11 14 18 15 14 12 21 28 31 28 31 32 41 54 55 53 54 57 58 60 60 59 61 61 61 62 62 63 63 61 61 63 62 64 64 63 63 64 63 63 63 63 65 64 62 62 62 63 60 63 63 61 60 62 61 63 64 62 62 63
23 18 18 17 18 15 14 11 12 12 12 9 11 8 8 5 7 8 9 13 17 18 15 18 15 14 11 12 11 11 12 15 18 30 32 32 33 47 49 50 48 49 50 50 57 59 60 59 60 60 61 62 63 61 61 61 61 62 63 63 63 63 63 64 64 64 63 63 64 65 63 63 63 59 61 59 58 60 61 62 62 61 59 62 64 61
12 11 16 16 15 14 13 10 7 9 13 14 9 7 8 4 4 6 13 13 18 19 16 18 23 15 13 18 18 19 19 20 26 31 31 34 36 47 51 52 52 45 47 50 58 59 60 61 59 58 60 62 62 62 61 61 61 62 62 62 62 62 63 63 63 64 64 62 62 64 63 63 59 60 60 59 60 60 62 62 63 63 63 62 63 66
15 17 16 13 13 11 9 8 7 6 10 11 8 7 10 4 5 8 12 14 15 14 14 16 20 17 15 17 13 21 25 26 28 28 31 33 41 48 53 54 54 50 52 55 58 59 60 60 60 61 59 60 61 61 61 61 61 62 62 62 61 62 62 63 62 63 63 62 63 63 64 59 59 60 60 59 59 60 62 62 62 63 62 62 62 63
11 12 11 10 13 10 7 8 10 10 9 8 9 11 16 16 10 10 13 13 14 12 14 12 15 20 17 18 14 20 25 25 26 27 34 37 37 48 52 52 52 50 52 57 57 57 58 58 59 59 59 59 60 60 61 61 61 61 61 61 61 61 61 62 62 63 62 62 63 63 63 59 60 60 59 58 59 59 59 61 61 63 62 62 61 63
11 9 13 12 17 9 7 9 11 9 11 8 11 14 15 12 13 10 9 13 12 13 14 12 14 17 17 22 28 22 28 29 26 28 35 36 35 43 49 50 50 55 54 57 55 57 58 57 57 58 59 59 59 60 60 61 60 60 61 60 60 61 60 61 62 62 62 62 63 64 61 62 62 62 60 59 60 60 60 60 61 60 61 60 60 61
9 6 7 12 12 12 8 8 14 12 13 11 9 14 15 13 12 14 11 14 13 13 13 17 19 13 32 25 31 31 37 32 29 36 35 38 40 40 44 47 48 49 53 54 56 55 57 58 57 58 58 58 58 59 60 61 60 61 61 60 60 60 61 61 61 61 62 63 64 65 63 62 61 62 60 61 59 61 60 61 61 60 61 60 61 60
10 7 8 10 11 9 10 11 12 14 9 8 9 8 15 23 15 15 9 11 11 10 17 13 20 19 16 28 44 33 37 39 39 39 42 42 40 46 45 45 48 56 55 55 55 55 56 57 57 58 58 59 59 59 60 60 62 61 61 60 60 61 62 62 61 62 62 63 64 64 63 62 61 61 61 61 62 61 61 62 59 63 61 61 60 59
9 11 11 10 9 7 8 11 12 14 11 6 5 7 18 18 26 14 21 17 17 14 16 20 18 24 29 33 35 33 34 38 40 40 40 44 45 49 43 49 54 55 56 56 56 56 57 57 57 58 58 58 58 59 59 60 61 62 62 61 60 61 62 62 62 62 62 64 63 64 62 62 62 59 60 61 61 63 65 63 63 62 62 60 60 58
11 15 11 9 8 7 8 9 8 9 15 20 6 9 10 16 16 19 23 24 23 16 12 25 26 29 33 32 32 33 30 33 37 39 45 45 45 49 51 53 54 55 55 56 56 57 58 57 57 58 59 59 59 59 60 61 61 61 61 61 61 61 62 62 62 62 63 62 61 62 62 62 62 59 60 60 62 61 63 64 64 61 61 60 58 57
16 18 14 13 7 8 10 10 8 8 10 18 15 8 7 10 21 25 16 18 16 13 15 20 20 21 21 28 30 32 30 39 43 45 45 46 47 48 52 53 53 55 56 56 56 57 58 57 57 58 59 59 58 59 59 60 61 62 62 62 62 61 62 63 63 64 61 61 60 62 61 62 62 60 61 60 60 60 61 62 61 61 59 58 57 56
16 16 16 14 13 9 8 9 8 7 9 9 14 16 16 19 14 18 21 17 16 16 13 12 17 21 20 22 29 30 36 40 44 46 46 46 47 48 51 52 54 56 56 55 55 56 57 56 57 58 58 58 59 59 60 60 60 61 61 61 62 62 62 63 62 61 62 62 60 61 61 61 61 61 60 59 59 60 59 59 60 60 60 58 58 56
25 18 16 14 13 10 8 9 15 11 7 8 10 13 14 19 22 17 17 16 18 20 16 16 9 27 32 37 28 36 39 42 43 44 45 45 46 47 51 52 53 54 56 57 56 56 56 56 56 57 58 57 58 59 58 59 60 60 61 61 61 60 59 60 62 60 61 61 60 60 60 61 59 58 57 58 59 59 57 57 57 58 59 58 57 56
23 28 19 14 14 13 21 13 12 10 14 10 11 13 13 25 32 19 30 14 14 16 14 12 9 33 39 39 38 43 43 44 44 44 47 48 48 49 51 53 53 53 54 54 55 56 56 57 54 54 55 56 57 58 59 59 60 59 60 61 60 60 59 61 59 60 61 61 60 60 60 60 60 59 57 58 59 58 59 58 57 59 58 56 58 55
19 24 21 24 18 15 14 13 11 10 10 12 11 12 11 17 16 14 19 18 18 16 19 20 24 32 39 40 41 42 45 44 47 45 46 49 48 51 52 53 54 55 55 53 53 53 55 55 55 54 54 56 57 58 58 58 58 58 58 59 59 58 60 62 61 61 60 61 60 60 60 60 60 57 57 59 59 59 58 58 59 60 57 58 56 55
35 30 24 21 20 20 19 16 17 13 11 9 9 9 7 15 15 20 16 21 18 14 13 21 25 32 40 41 43 44 45 46 47 45 42 44 46 47 51 49 51 54 54 51 51 51 51 52 54 55 56 55 55 55 56 57 57 58 58 59 59 58 58 60 59 60 60 60 60 60 60 59 58 57 58 58 58 57 56 57 58 57 59 58 56 57
30 24 25 23 22 21 20 18 20 22 12 10 8 12 12 18 13 15 15 35 23 24 16 17 23 32 39 41 42 45 49 48 47 43 46 43 45 45 46 50 53 49 49 50 52 51 50 50 51 51 54 55 55 56 57 58 57 58 59 58 58 60 59 60 59 60 59 59 60 60 60 59 57 56 57 57 57 57 57 56 56 56 57 55 54 54
24 26 22 22 25 32 23 21 21 21 20 19 15 19 12 12 15 24 17 23 18 17 14 14 14 26 40 42 44 46 48 48 49 49 47 45 47 48 48 48 51 52 50 50 50 50 51 50 49 49 51 52 53 54 56 56 56 57 58 58 59 60 61 61 60 59 59 60 60 60 59 59 58 57 57 57 57 58 56 57 55 54 52 57 55 54
27 29 25 18 18 20 20 20 24 26 25 26 26 22 12 11 24 29 19 20 17 21 17 18 31 35 37 42 44 46 46 47 49 50 51 51 51 49 51 49 49 50 51 52 53 53 54 51 52 54 53 52 53 53 55 56 55 54 55 56 58 58 59 59 59 60 60 61 62 60 61 62 61 60 58 58 57 58 58 55 56 55 55 53 52 56
31 32 29 25 22 23 28 25 28 27 27 25 27 28 30 17 16 23 24 22 21 29 25 35 33 37 38 39 41 45 47 47 48 49 49 50 50 50 47 46 47 47 47 47 50 51 52 53 56 54 53 51 52 53 53 53 54 54 56 57 56 57 58 59 59 60 60 60 60 60 60 61 60 61 60 59 59 61 59 56 61 54 54 55 54 56
28 26 29 31 30 28 27 27 31 29 26 25 26 27 28 32 25 25 23 19 27 27 25 35 37 37 39 39 43 46 46 48 48 48 46 47 47 46 46 46 46 45 46 46 46 47 50 52 54 54 54 54 54 55 54 55 58 57 56 56 57 57 58 58 59 59 60 60 60 58 60 60 61 61 61 60 61 59 60 61 61 58 58 56 57 54
27 24 27 29 27 22 24 25 28 31 27 26 25 28 28 31 37 37 27 25 28 23 24 36 39 38 39 42 44 45 46 47 46 49 48 47 46 45 45 44 44 43 43 42 43 43 42 43 50 51 51 52 54 54 54 53 53 55 55 57 58 58 59 60 60 58 58 59 59 59 58 61 59 60 60 59 59 59 60 60 60 60 59 58 59 56
28 24 27 28 27 23 22 23 25 25 25 26 26 26 26 30 37 37 37 39 34 32 36 39 40 40 41 42 43 44 45 45 45 45 46 46 47 45 43 43 42 41 40 40 41 38 38 40 41 42 46 50 48 48 49 50 51 51 52 53 54 57 57 60 58 58 58 57 58 58 58 58 60 59 60 59 60 60 60 59 59 59 58 57 58 58
32 30 29 28 26 26 25 24 23 23 26 28 28 27 26 27 30 34 40 40 40 39 39 39 38 38 41 42 42 43 44 43 43 43 44 47 45 42 41 42 42 40 37 35 35 34 34 35 36 36 37 40 41 42 42 46 50 49 48 50 51 49 50 53 58 58 56 56 57 58 57 57 58 59 59 59 60 59 58 58 59 58 58 59 59 59
37 30 29 29 25 26 24 24 23 24 25 26 28 30 29 29 30 31 36 39 38 37 38 37 35 35 39 41 42 42 42 41 40 38 37 41 47 46 39 38 38 37 36 35 36 36 36 35 36 35 36 36 35 35 38 40 37 38 38 39 39 40 43 49 52 53 53 56 57 55 56 57 56 58 58 58 57 58 57 58 58 58 59 60 60 59
36 33 29 28 25 24 21 24 25 25 26 25 28 29 31 31 29 27 31 34 38 40 34 31 35 37 41 40 40 34 32 32 33 33 33 34 34 33 32 32 33 33 33 34 34 34 35 35 35 36 36 34 34 33 33 34 35 38 39 42 44 39 43 43 43 42 47 51 53 53 59 55 55 55 56 56 57 58 58 58 59 58 58 58 59 58
38 36 28 30 25 25 30 28 28 25 22 24 38 39 32 32 31 30 33 32 37 38 35 36 37 38 37 32 31 30 31 31 32 33 34 34 34 34 34 34 33 32 32 33 33 33 34 34 35 36 36 35 34 33 34 35 36 37 38 37 37 39 40 40 40 43 42 43 43 43 48 50 52 54 56 57 58 57 56 57 57 59 59 58 57 57
38 38 32 31 26 26 29 30 27 24 24 34 34 33 34 32 29 32 32 33 34 35 36 35 35 35 34 31 31 31 30 30 31 33 33 33 34 34 35 35 35 35 34 34 35 37 37 37 38 38 38 37 35 35 34 34 34 36 35 36 35 36 39 38 38 40 41 42 41 43 44 42 43 44 51 56 57 57 55 56 57 57 57 57 58 58
31 31 28 27 27 28 26 27 25 26 32 34 37 34 35 35 33 33 33 32 33 35 34 33 33 32 31 30 30 30 30 30 31 32 33 35 36 36 36 37 38 39 39 38 38 40 39 37 38 39 39 39 34 33 33 35 35 34 34 35 34 33 35 38 37 35 39 38 38 39 39 41 43 46 44 45 48 52 55 57 57 57 59 58 58 58
31 32 30 28 31 25 26 26 27 31 32 30 31 33 33 33 34 34 28 34 35 33 33 33 32 31 30 30 30 31 32 31 31 32 33 34 36 37 37 36 35 35 36 39 40 41 41 41 43 43 43 41 39 35 37 35 36 35 35 34 32 31 32 38 39 37 38 37 37 37 37 39 40 43 44 45 45 46 52 54 55 57 57 57 57 57
33 28 33 27 27 27 25 25 27 27 24 30 32 32 34 34 34 36 31 35 36 34 33 32 31 31 30 30 31 32 33 31 30 30 31 33 35 36 36 35 33 33 34 37 41 43 43 42 43 45 44 43 42 36 39 40 38 32 33 33 31 30 30 32 37 36 36 36 37 36 35 36 36 39 42 43 43 46 49 48 49 52 57 56 56 56
25 28 33 24 25 25 24 23 24 25 28 33 31 33 30 31 34 35 31 29 33 32 33 32 31 31 31 31 31 33 35 29 28 29 31 31 32 33 35 37 37 37 30 26 28 32 35 39 42 41 40 39 32 36 39 39 39 35 35 36 35 37 36 38 36 36 35 37 38 36 35 36 37 39 41 42 44 47 47 48 49 48 49 54 54 55
25 24 24 21 23 21 23 21 22 27 27 32 32 34 31 30 33 30 23 25 34 31 31 32 32 32 32 32 32 33 32 27 27 26 28 29 30 34 36 37 35 33 26 25 25 28 26 29 27 30 32 32 33 36 33 31 32 35 34 37 33 37 36 35 35 32 34 35 36 36 36 35 36 39 40 40 42 45 46 46 46 47 48 48 46 48
25 24 22 22 20 23 22 24 27 29 32 33 31 30 30 34 33 25 21 27 35 32 31 32 32 33 33 32 32 28 29 28 27 27 28 26 25 25 25 25 23 22 22 24 25 30 22 25 27 27 28 30 31 33 33 33 35 35 34 34 35 35 35 35 35 35 35 34 33 32 31 32 36 39 39 39 41 42 43 43 44 46 47 46 46 47
21 22 20 21 18 18 20 24 27 28 31 31 32 29 30 31 22 24 29 33 32 30 30 30 30 30 30 29 29 28 28 28 28 27 26 25 26 26 24 24 25 25 26 28 30 28 26 25 29 30 31 31 31 32 33 33 34 34 34 34 34 35 35 35 34 35 34 33 33 34 35 36 37 39 41 39 40 40 40 41 41 42 44 44 44 45
25 22 21 24 25 22 21 21 23 21 29 32 32 26 29 26 28 30 30 30 31 31 30 30 30 29 29 28 28 29 27 27 28 28 28 28 27 27 27 27 28 27 27 28 27 26 26 27 29 30 32 32 33 34 33 34 34 34 34 34 35 36 35 34 35 34 34 34 34 35 36 37 38 38 38 38 39 39 40 41 41 42 43 45 45 45
25 20 21 25 26 20 23 24 24 28 29 32 30 26 28 29 30 30 29 28 30 30 29 29 29 30 29 29 28 28 28 28 28 28 27 27 27 27 28 29 29 28 28 27 28 28 27 28 30 32 33 33 34 34 34 34 34 34 34 35 35 36 36 35 34 34 34 36 35 36 35 34 36 37 38 38 38 37 37 37 38 39 40 39 41 41
25 25 26 23 27 26 25 27 28 29 30 30 31 30 29 31 33 33 33 30 30 29 31 31 32 31 30 30 30 29 28 28 27 27 27 28 27 26 27 28 29 29 30 30 29 30 30 29 31 32 33 33 33 33 32 32 33 32 32 34 33 32 32 33 33 34 34 33 33 35 34 35 36 36 36 37 36 36 35 35 36 36 37 39 40 40
24 26 28 25 26 28 29 29 30 28 29 30 30 30 29 31 32 33 32 31 31 30 30 29 29 29 29 30 28 27 27 28 27 26 27 27 27 27 28 28 29 30 30 31 31 31 31 31 32 31 31 30 30 31 33 32 30 31 33 32 33 31 32 32 33 34 34 33 33 34 32 33 34 34 35 37 36 36 36 35 35 35 33 33 35 35
22 21 22 27 27 24 25 29 29 29 29 30 29 30 30 31 31 31 31 31 31 31 30 30 30 30 30 29 29 28 27 27 26 26 27 28 27 27 28 30 31 31 31 31 33 32 32 31 30 29 29 29 30 30 30 31 32 32 32 33 32 32 32 32 33 34 34 34 33 33 33 34 34 34 34 35 34 35 35 33 34 34 32 32 31 31
19 21 17 23 25 22 26 28 29 29 29 29 28 28 29 30 30 30 30 30 30 30 29 30 29 28 28 26 26 27 28 27 26 25 25 26 26 27 28 29 30 30 32 32 33 31 32 28 27 28 29 30 31 32 32 31 31 31 32 33 33 33 33 35 34 33 33 33 34 34 33 33 32 34 33 34 34 34 34 34 34 33 33 33 32 30
20 21 18 21 25 26 27 27 26 27 27 27 28 28 28 28 27 29 30 30 29 28 28 27 27 27 27 27 28 27 28 28 27 26 24 24 26 28 28 29 29 31 31 31 31 32 31 29 29 31 31 31 32 32 33 33 33 31 33 34 34 34 34 35 35 35 34 34 33 33 34 34 33 33 33 33 34 34 34 35 34 34 34 36 42 41
19 23 19 19 25 25 26 26 28 26 26 28 27 28 29 30 29 29 28 28 28 27 27 28 26 27 27 27 27 27 26 26 28 27 25 25 27 28 28 28 29 29 30 30 31 30 30 31 32 32 31 32 33 33 33 33 33 34 33 34 34 34 34 34 34 34 34 33 33 33 33 34 33 33 32 32 33 33 34 33 34 34 34 34 34 36
21 23 22 21 19 21 26 31 26 26 27 27 27 27 27 26 25 26 24 25 25 25 24 24 25 25 24 25 26 26 26 26 26 27 27 26 26 27 27 28 28 28 29 30 30 29 30 32 33 32 32 32 33 33 34 34 34 34 34 34 34 34 34 34 34 34 34 33 33 34 35 34 34 33 33 33 33 33 33 33 33 33 33 34 34 34